TimeCST,TemperatureF,Dew PointF,Humidity,Sea Level PressureIn,VisibilityMPH,Wind Direction,Wind SpeedMPH,Gust SpeedMPH,PrecipitationIn,Events,Conditions,WindDirDegrees,DateUTC
12:53 AM,24.1,8.1,51,30.19,10.0,SW,3.5,-,N/A,,Clear,230,2011-11-28 06:53:00
1:53 AM,28.0,7.0,41,30.16,10.0,SW,5.8,-,N/A,,Clear,220,2011-11-28 07:53:00
2:53 AM,25.0,10.9,55,30.16,10.0,South,4.6,-,N/A,,Clear,180,2011-11-28 08:53:00
3:53 AM,23.0,10.9,60,30.14,10.0,South,4.6,-,N/A,,Clear,170,2011-11-28 09:53:00
4:53 AM,24.1,10.9,57,30.12,10.0,South,6.9,-,N/A,,Clear,170,2011-11-28 10:53:00
5:53 AM,21.9,10.9,63,30.12,10.0,South,5.8,-,N/A,,Clear,180,2011-11-28 11:53:00
6:53 AM,24.1,10.0,55,30.12,10.0,South,9.2,-,N/A,,Clear,180,2011-11-28 12:53:00
7:53 AM,25.0,10.0,53,30.11,10.0,South,8.1,-,N/A,,Clear,180,2011-11-28 13:53:00
8:53 AM,32.0,10.9,42,30.11,10.0,South,8.1,-,N/A,,Clear,190,2011-11-28 14:53:00
9:53 AM,37.4,12.2,36,30.04,10.0,SSW,11.5,-,N/A,,Clear,200,2011-11-28 15:53:00
10:53 AM,46.4,15.8,29,30.03,10.0,SW,9.2,-,N/A,,Clear,220,2011-11-28 16:53:00
11:53 AM,50.0,16.0,26,30.06,10.0,South,10.4,-,N/A,,Clear,190,2011-11-28 17:53:00
12:53 PM,54.0,17.1,23,30.06,10.0,SSW,8.1,16.1,N/A,,Clear,210,2011-11-28 18:53:00
1:53 PM,57.0,18.0,22,30.05,10.0,SW,8.1,-,N/A,,Clear,220,2011-11-28 19:53:00
2:53 PM,57.9,19.0,22,30.05,10.0,WNW,5.8,-,N/A,,Clear,300,2011-11-28 20:53:00
3:53 PM,55.9,19.9,25,30.09,10.0,NNW,13.8,-,N/A,,Clear,330,2011-11-28 21:53:00
4:53 PM,46.9,21.0,36,30.12,10.0,North,6.9,-,N/A,,Clear,360,2011-11-28 22:53:00
5:53 PM,46.0,21.9,39,30.17,10.0,North,10.4,-,N/A,,Clear,10,2011-11-28 23:53:00
6:53 PM,46.0,24.1,42,30.19,10.0,North,12.7,-,N/A,,Clear,10,2011-11-29 00:53:00
7:53 PM,46.9,26.1,44,30.22,10.0,North,15.0,-,N/A,,Clear,10,2011-11-29 01:53:00
8:53 PM,46.9,27.0,46,30.25,10.0,North,17.3,-,N/A,,Clear,10,2011-11-29 02:53:00
9:53 PM,44.1,27.0,51,30.26,10.0,North,15.0,-,N/A,,Clear,360,2011-11-29 03:53:00
10:53 PM,42.1,28.0,58,30.27,10.0,North,18.4,-,N/A,,Clear,350,2011-11-29 04:53:00
11:53 PM,39.0,28.9,67,30.29,10.0,North,13.8,-,N/A,,Clear,350,2011-11-29 05:53:00